Flag for Poland Weather past 2 weeks in Białystok, Poland

Now
57 °F

Fog.


Feels Like: 57 °F
Forecast: 50 / 73 °F
Wind: 2 mph from South

Location: Bialystok

Current Time: Apr 27, 2015 at 9:42:13 AM

Latest Report: Apr 27, 2015 at 9:00 AM


Visibility: 7 mi

Pressure: 29.79 "Hg

Humidity: 88%

Dew point: 53 °F

Location of BiałystokLocation

Historic Weather in Białystok — Graph

°F

Białystok temperature yesterday

Maximum temperature yesterday: 64 °F (at 12:00 PM)
Minimum temperature yesterday: 48 °F (at 1:00 AM)
Average temperature yesterday: 56 °F

Past Weeks' High & Low Weather Summary

 TemperatureHumidityPressure
High70 °F (Apr 25, 5:00 PM)100% (Apr 25, 6:00 AM)30.29 "Hg (Apr 25, 6:00 AM)
Low28 °F (Apr 22, 6:00 AM)32% (Apr 12, 5:00 PM)29.58 "Hg (Apr 16, 4:00 AM)
Average47 °F66%29.92 "Hg
* Reported Apr 12 8:00 AM — Apr 27 8:00 AM, Białystok, Weather by CustomWeather, © 2015

Note: Actual official high and low records may vary slightly from our data, if they occured in-between our weather recording intervals... More about our weather records

Advertising

Białystok weather history for previous 24 hours

 ConditionsComfort  
Time TempWeatherWind HumidityBarometerVisibility
8:00 AM
Mon, Apr 27
51 °FFog.2 mph99%29.80 "Hg1 mi
7:00 AM49 °FFog.1 mph99%29.79 "Hg0 mi
6:00 AM42 °FFog.1 mph98%29.79 "Hg0 mi
5:00 AM41 °FFog.No wind97%29.79 "Hg0 mi
4:00 AM43 °FFog.1 mph97%29.79 "Hg1 mi
3:00 AM45 °FFog.1 mph97%29.79 "Hg2 mi
2:00 AM47 °FFog.No wind96%29.78 "Hg2 mi
1:00 AM50 °FFog.1 mph97%29.78 "Hg2 mi
12:00 AM49 °FFog.1 mph97%29.78 "Hg3 mi
11:00 PM
Sun, Apr 26
50 °FFog.No wind96%29.77 "Hg5 mi
10:00 PM50 °FFog.1 mph94%29.78 "Hg4 mi
9:00 PM53 °FFog.1 mph92%29.77 "Hg7 mi
8:00 PM56 °FOvercast.1 mph82%29.76 "Hg14 mi
7:00 PM59 °FPartly sunny.2 mph78%29.76 "Hg25 mi
6:00 PM61 °FPartly sunny.2 mph71%29.75 "Hg22 mi
5:00 PM59 °FOvercast.2 mph76%29.76 "Hg19 mi
4:00 PM59 °FSprinkles. Overcast.2 mph82%29.77 "Hg9 mi
3:00 PM60 °FOvercast.2 mph70%29.77 "Hg12 mi
2:00 PM59 °FLight rain. Overcast.3 mph76%29.78 "Hg11 mi
1:00 PM60 °FLight rain. Overcast.3 mph69%29.78 "Hg9 mi
12:00 PM64 °FOvercast.5 mph49%29.75 "Hg16 mi
11:00 AM63 °FOvercast.3 mph52%29.75 "Hg18 mi
10:00 AM62 °FLight rain. Overcast.3 mph52%29.75 "Hg15 mi
9:00 AM61 °FOvercast.2 mph53%29.75 "Hg17 mi
Weather by CustomWeather, © 2015

See weather overviewHow to use our weather pages